BIPCOM Weather Reports


Display with metric or nautical units.
time (UTC)temp
F
wind
direction
speed
MPH
gust
MPH
rain 1hr
in
rain 24hr
in
rain mn
in
humidity
%
barometer
mb
20260502130549 53 134 9.0 11.0 0.00 0.00 0.00 91 1013.3
20260502123539 54 86 4.0 7.0 0.00 0.00 0.00 91 1013.4
20260502123030 54 86 5.0 8.0 0.00 0.00 0.00 91 1013.5
20260502122520 54 78 4.0 8.0 0.00 0.00 0.00 91 1013.5
20260502122012 54 69 5.0 6.0 0.00 0.00 0.00 91 1013.5
20260502121601 54 67 4.0 6.0 0.00 0.00 0.00 91 1013.6
20260502121051 54 84 4.0 7.0 0.00 0.00 0.00 91 1013.9
20260502120541 54 84 4.0 7.0 0.00 0.00 0.00 91 1014.0
20260502115520 54 84 5.0 7.0 0.00 0.00 0.00 91 1014.2
20260502115010 54 77 4.0 7.0 0.00 0.00 0.00 91 1014.1
20260502114603 54 89 4.0 7.0 0.00 0.00 0.00 91 1014.3
20260502114052 54 84 4.0 6.0 0.00 0.00 0.00 91 1014.3
20260502113533 54 74 3.0 8.0 0.00 0.00 0.00 91 1014.4
20260502113021 54 77 6.0 8.0 0.00 0.00 0.00 91 1014.5
20260502112509 54 94 6.0 9.0 0.00 0.00 0.00 91 1014.5
20260502112101 54 101 7.0 11.0 0.00 0.00 0.00 91 1014.6
20260502111553 53 107 8.0 11.0 0.00 0.00 0.00 91 1014.7
20260502111041 54 90 7.0 10.0 0.00 0.00 0.00 91 1014.8
20260502110531 54 90 8.0 10.0 0.00 0.00 0.00 91 1014.9
20260502110022 53 109 8.0 10.0 0.00 0.00 0.00 91 1014.9
20260502105511 53 98 8.0 10.0 0.00 0.00 0.00 91 1014.9
20260502105104 53 92 9.0 10.0 0.00 0.00 0.00 91 1015.0
20260502104605 53 91 8.0 10.0 0.00 0.00 0.00 91 1015.0
20260502104042 53 85 8.0 11.0 0.00 0.00 0.00 91 1015.0
20260502103521 53 99 9.0 11.0 0.00 0.00 0.00 91 1015.1
20260502103015 54 88 9.0 10.0 0.00 0.00 0.00 91 1015.1
20260502102604 54 84 8.0 9.0 0.00 0.00 0.00 91 1015.1
20260502102053 54 71 7.0 10.0 0.00 0.00 0.00 91 1015.2
20260502101558 54 94 8.0 10.0 0.00 0.00 0.00 91 1015.4
20260502101032 54 104 9.0 10.0 0.00 0.00 0.00 90 1015.5
20260502100521 54 92 7.0 9.0 0.00 0.00 0.00 90 1015.6
20260502091024 53 91 5.0 7.0 0.00 0.00 0.00 92 1015.8
20260502090513 53 113 3.0 8.0 0.00 0.00 0.00 93 1015.9
20260502071515 52 183 0.0 4.0 0.00 0.00 0.00 92 1016.7
20260502071006 52 183 2.0 9.0 0.00 0.00 0.00 92 1016.8
20260502070557 52 183 5.0 9.0 0.00 0.00 0.00 92 1016.8
20260502065537 52 185 1.0 7.0 0.00 0.00 0.00 92 1016.8
20260502065032 52 185 4.0 10.0 0.00 0.00 0.00 92 1016.8
20260502064517 52 159 5.0 8.0 0.00 0.00 0.00 92 1016.9
20260502064107 53 188 5.0 8.0 0.00 0.00 0.00 92 1016.9
20260502063546 52 141 2.0 7.0 0.00 0.00 0.00 92 1016.9
20260502063037 52 141 5.0 8.0 0.00 0.00 0.00 92 1017.0
20260502062531 52 117 5.0 7.0 0.00 0.00 0.00 92 1016.9
20260502062016 52 160 3.0 7.0 0.00 0.00 0.00 92 1016.9
20260502061512 52 300 3.0 5.0 0.00 0.00 0.00 92 1016.8
20260502061058 52 300 2.0 3.0 0.00 0.00 0.00 92 1016.7
20260502060547 52 300 1.0 2.0 0.00 0.00 0.00 92 1016.6
20260502060043 52 300 1.0 2.0 0.00 0.00 0.00 92 1016.8
20260502055530 52 300 1.0 3.0 0.00 0.00 0.00 92 1016.8
20260502055018 52 300 1.0 4.0 0.00 0.00 0.00 92 1016.7
20260502054507 52 300 2.0 5.0 0.00 0.00 0.00 92 1016.7
20260502054101 52 300 3.0 5.0 0.00 0.00 0.00 92 1016.7
20260502053537 52 300 3.0 4.0 0.00 0.00 0.00 92 1016.7
20260502053028 52 300 1.0 3.0 0.00 0.00 0.00 92 1016.8
20260502052519 52 300 1.0 3.0 0.00 0.00 0.00 92 1016.9
20260502052008 52 300 1.0 3.0 0.00 0.00 0.00 92 1016.9
20260502051603 52 300 1.0 4.0 0.00 0.00 0.00 92 1016.8
20260502051049 52 300 2.0 5.0 0.00 0.00 0.00 92 1016.8
20260502050539 52 300 3.0 5.0 0.00 0.00 0.00 92 1016.7
20260502050029 52 300 2.0 4.0 0.00 0.00 0.00 92 1016.8
20260502045519 52 300 1.0 4.0 0.00 0.00 0.00 92 1016.9
20260502045012 52 300 3.0 5.0 0.00 0.00 0.00 92 1016.9
20260502044600 52 300 3.0 5.0 0.00 0.00 0.00 91 1016.8
20260502044051 52 300 2.0 3.0 0.00 0.00 0.00 92 1016.9
20260502043532 52 300 1.0 4.0 0.00 0.00 0.00 91 1016.9
20260502043020 52 300 2.0 4.0 0.00 0.00 0.00 91 1016.9
20260502042508 52 300 2.0 4.0 0.00 0.00 0.00 91 1016.9
20260502042100 52 300 2.0 5.0 0.00 0.00 0.00 91 1016.9
20260502041613 52 300 2.0 5.0 0.00 0.00 0.00 91 1017.0
20260502041040 52 300 2.0 5.0 0.00 0.00 0.00 91 1017.0
20260502040531 52 300 3.0 5.0 0.00 0.00 0.00 91 1017.0
20260502040042 52 322 1.0 5.0 0.00 0.00 0.00 91 1016.9
20260502035509 52 339 4.0 5.0 0.00 0.00 0.00 91 1016.9
20260502035102 52 263 3.0 6.0 0.00 0.00 0.00 91 1016.9
20260502034551 52 263 3.0 6.0 0.00 0.00 0.00 91 1017.1
20260502034042 52 263 3.0 6.0 0.00 0.00 0.00 91 1017.1
20260502033519 52 263 3.0 4.0 0.00 0.00 0.00 91 1017.2
20260502033024 52 263 1.0 4.0 0.00 0.00 0.00 91 1017.2
20260502032601 52 255 1.0 3.0 0.00 0.00 0.00 91 1017.3
20260502032051 52 255 1.0 3.0 0.00 0.00 0.00 91 1017.3
20260502031541 52 255 1.0 2.0 0.00 0.00 0.00 91 1017.3
20260502031031 52 255 0.0 2.0 0.00 0.00 0.00 91 1017.3
20260502030521 52 255 1.0 3.0 0.00 0.00 0.00 91 1017.3
20260502030011 52 255 1.0 4.0 0.00 0.00 0.00 91 1017.2
20260502025500 52 246 2.0 3.0 0.00 0.00 0.00 91 1017.3
20260502025053 52 246 0.0 1.0 0.00 0.00 0.00 91 1017.3
20260502024552 52 246 0.0 1.0 0.00 0.00 0.00 91 1017.3
20260502024032 52 246 0.0 2.0 0.00 0.00 0.00 91 1017.3
20260502023516 52 246 0.0 3.0 0.00 0.00 0.00 91 1017.5
20260502023003 52 246 0.0 5.0 0.00 0.00 0.00 91 1017.6
20260502022554 52 246 1.0 5.0 0.00 0.00 0.00 91 1017.6
20260502022042 53 246 0.0 3.0 0.00 0.00 0.00 91 1017.6
20260502021532 53 246 1.0 3.0 0.00 0.00 0.00 91 1017.7
20260502021022 53 246 0.0 4.0 0.00 0.00 0.00 91 1017.7
20260502020512 53 246 2.0 5.0 0.00 0.00 0.00 91 1017.7
20260502020002 53 242 3.0 9.0 0.00 0.00 0.00 91 1017.7
20260502015556 53 259 3.0 9.0 0.00 0.00 0.00 91 1017.8
20260502015044 53 238 2.0 7.0 0.00 0.00 0.00 91 1017.9
20260502014538 53 269 2.0 4.0 0.00 0.00 0.00 91 1018.0
20260502014012 53 269 1.0 4.0 0.00 0.00 0.00 91 1018.0
20260502013502 53 269 1.0 4.0 0.00 0.00 0.00 91 1018.0
20260502013057 53 269 0.0 4.0 0.00 0.00 0.00 91 1018.1
20260502012541 53 304 0.0 4.0 0.00 0.00 0.00 91 1018.1
20260502012031 53 304 0.0 4.0 0.00 0.00 0.00 91 1018.1
20260502011521 53 304 1.0 3.0 0.00 0.00 0.00 91 1018.1
20260502011010 53 304 1.0 7.0 0.00 0.00 0.00 91 1018.1
20260502010602 53 304 3.0 7.0 0.00 0.00 0.00 91 1018.1
20260502010051 53 301 0.0 6.0 0.00 0.00 0.00 91 1018.1
20260502005542 53 221 0.0 6.0 0.00 0.00 0.00 91 1018.2
20260502005034 53 226 2.0 4.0 0.00 0.00 0.00 91 1018.3
20260502004523 53 226 0.0 8.0 0.00 0.00 0.00 91 1018.4
20260502004112 53 226 1.0 8.0 0.00 0.00 0.00 91 1018.4
20260502003551 53 273 2.0 7.0 0.00 0.00 0.00 91 1018.4
20260502003042 53 240 3.0 7.0 0.00 0.00 0.00 91 1018.5
20260502002531 53 255 2.0 8.0 0.00 0.00 0.00 91 1018.5
20260502002021 53 279 5.0 8.0 0.00 0.00 0.00 91 1018.6
20260502001512 53 273 3.0 10.0 0.00 0.00 0.00 91 1018.5
20260502001001 53 246 5.0 10.0 0.00 0.00 0.00 91 1018.6
20260502000553 53 253 3.0 7.0 0.00 0.00 0.00 91 1018.7
20260502000057 53 251 3.0 8.0 0.00 0.00 0.00 91 1018.7
20260501235532 53 217 1.0 5.0 0.00 0.00 0.00 91 1018.7
20260501235022 53 217 2.0 5.0 0.00 0.00 0.00 91 1018.6
20260501234514 53 46 2.0 8.0 0.00 0.00 0.00 91 1018.7
20260501234104 53 277 4.0 9.0 0.00 0.00 0.00 91 1018.8
20260501233544 53 272 4.0 10.0 0.00 0.00 0.00 91 1018.8
20260501233036 52 216 5.0 10.0 0.00 0.00 0.00 90 1018.8
20260501232522 53 264 5.0 8.0 0.00 0.00 0.00 91 1018.9
20260501232010 52 267 4.0 9.0 0.00 0.00 0.00 91 1018.9
20260501231628 52 247 7.0 9.0 0.00 0.00 0.00 91 1018.9
20260501231051 52 259 3.0 12.0 0.00 0.00 0.00 90 1018.9
20260501230541 52 254 5.0 12.0 0.00 0.00 0.00 91 1019.0
20260501230105 52 296 4.0 12.0 0.00 0.00 0.00 91 1019.0
20260501225523 53 253 5.0 13.0 0.00 0.00 0.00 91 1019.1
20260501225013 52 284 6.0 11.0 0.00 0.00 0.00 91 1019.1
20260501224609 52 264 7.0 13.0 0.00 0.00 0.00 91 1019.1
20260501224052 52 259 8.0 15.0 0.00 0.00 0.00 91 1019.1
20260501223531 52 281 7.0 16.0 0.00 0.00 0.00 91 1019.1
20260501223022 52 240 10.0 16.0 0.00 0.00 0.00 91 1019.2
20260501222511 52 261 7.0 16.0 0.00 0.00 0.00 91 1019.2
20260501222002 53 263 5.0 17.0 0.00 0.00 0.00 91 1019.2
20260501221607 52 259 7.0 17.0 0.00 0.00 0.00 91 1019.2
20260501221042 53 236 10.0 16.0 0.00 0.00 0.00 91 1019.2
20260501220532 53 264 5.0 16.0 0.00 0.00 0.00 91 1019.1
20260501220022 53 258 10.0 16.0 0.00 0.00 0.00 91 1019.1
20260501215513 53 294 6.0 13.0 0.00 0.00 0.00 91 1019.2
20260501215001 53 249 5.0 11.0 0.00 0.00 0.00 91 1019.2
20260501214554 53 247 3.0 11.0 0.00 0.00 0.00 91 1019.2
20260501214042 53 257 7.0 11.0 0.00 0.00 0.00 90 1019.1
20260501213521 53 229 6.0 12.0 0.00 0.00 0.00 90 1019.1
20260501213011 53 261 7.0 12.0 0.00 0.00 0.00 90 1019.1
20260501212502 53 276 3.0 11.0 0.00 0.00 0.00 90 1019.1
20260501212053 53 264 3.0 11.0 0.00 0.00 0.00 90 1019.0
20260501211543 52 271 5.0 12.0 0.00 0.00 0.00 90 1019.0
20260501211032 52 252 4.0 12.0 0.00 0.00 0.00 90 1018.9
20260501210525 52 239 7.0 12.0 0.00 0.00 0.00 90 1018.9
20260501210012 52 277 6.0 13.0 0.00 0.00 0.00 89 1018.8
20260501205502 52 253 8.0 13.0 0.00 0.00 0.00 89 1018.8
20260501205054 53 246 7.0 10.0 0.00 0.00 0.00 89 1018.8
20260501204546 53 260 5.0 10.0 0.00 0.00 0.00 89 1018.8
20260501204036 53 287 8.0 12.0 0.00 0.00 0.00 89 1018.7
20260501203512 53 263 6.0 9.0 0.00 0.00 0.00 89 1018.7
20260501203009 53 306 4.0 9.0 0.00 0.00 0.00 88 1018.7
20260501202554 53 261 4.0 11.0 0.00 0.00 0.00 88 1018.8
20260501202043 53 285 6.0 11.0 0.00 0.00 0.00 88 1018.6
20260501201533 53 282 4.0 9.0 0.00 0.00 0.00 88 1018.6
20260501201024 53 263 5.0 11.0 0.00 0.00 0.00 87 1018.7
20260501200516 53 294 6.0 11.0 0.00 0.00 0.00 87 1018.6
20260501200003 53 288 5.0 10.0 0.00 0.00 0.00 87 1018.6
20260501195554 53 288 5.0 10.0 0.00 0.00 0.00 87 1018.6
20260501195045 53 285 4.0 9.0 0.00 0.00 0.00 87 1018.6
20260501194532 53 314 5.0 9.0 0.00 0.00 0.00 86 1018.5
20260501194011 53 278 4.0 8.0 0.00 0.00 0.00 86 1018.5
20260501193501 53 265 3.0 9.0 0.00 0.00 0.00 86 1018.6
20260501193052 53 275 4.0 10.0 0.00 0.00 0.00 86 1018.5
20260501192542 53 270 4.0 9.0 0.00 0.00 0.00 86 1018.5
20260501192034 54 268 3.0 9.0 0.00 0.00 0.00 85 1018.5
20260501191522 54 265 4.0 10.0 0.00 0.00 0.00 85 1018.5
20260501191012 54 288 4.0 12.0 0.00 0.00 0.00 85 1018.5
20260501190600 54 296 4.0 10.0 0.00 0.00 0.00 85 1018.4
20260501190051 54 271 6.0 10.0 0.00 0.00 0.00 84 1018.4
20260501185540 54 284 4.0 9.0 0.00 0.00 0.00 84 1018.4
20260501185030 54 299 5.0 10.0 0.00 0.00 0.00 84 1018.3
20260501184525 54 255 4.0 10.0 0.00 0.00 0.00 84 1018.4
20260501184112 54 286 2.0 10.0 0.00 0.00 0.00 84 1018.4
20260501183551 55 259 2.0 10.0 0.00 0.00 0.00 84 1018.4
20260501183041 55 282 3.0 10.0 0.00 0.00 0.00 83 1018.4
20260501182530 55 229 3.0 8.0 0.00 0.00 0.00 83 1018.4
20260501182020 55 269 3.0 5.0 0.00 0.00 0.00 83 1018.3
20260501181510 55 306 2.0 8.0 0.00 0.00 0.00 83 1018.4
20260501181102 55 254 3.0 11.0 0.00 0.00 0.00 83 1018.4
20260501180553 55 234 2.0 12.0 0.00 0.00 0.00 83 1018.4
20260501180044 55 257 6.0 14.0 0.00 0.00 0.00 83 1018.4
20260501175529 55 256 6.0 16.0 0.00 0.00 0.00 83 1018.3
20260501175020 56 269 7.0 16.0 0.00 0.00 0.00 83 1018.2
20260501174509 56 284 5.0 15.0 0.00 0.00 0.00 83 1018.2
20260501174100 56 288 4.0 15.0 0.00 0.00 0.00 83 1018.2
20260501173539 56 282 5.0 11.0 0.00 0.00 0.00 84 1018.2
20260501173029 56 262 7.0 15.0 0.00 0.00 0.00 84 1018.2
20260501172519 55 271 9.0 17.0 0.00 0.00 0.00 84 1018.3
20260501172013 55 244 11.0 17.0 0.00 0.00 0.00 83 1018.2
20260501171606 55 271 8.0 14.0 0.00 0.00 0.00 83 1018.3
20260501171050 56 202 6.0 14.0 0.00 0.00 0.00 83 1018.3
20260501170540 56 264 6.0 16.0 0.00 0.00 0.00 84 1018.4
20260501170030 56 262 8.0 16.0 0.00 0.00 0.00 83 1018.4
20260501165520 56 234 9.0 16.0 0.00 0.00 0.00 83 1018.4
20260501165010 56 271 6.0 15.0 0.00 0.00 0.00 83 1018.4
20260501164620 56 250 8.0 15.0 0.00 0.00 0.00 82 1018.6
20260501164051 56 235 9.0 16.0 0.00 0.00 0.00 83 1018.5
20260501163530 56 259 10.0 20.0 0.00 0.00 0.00 82 1018.5
20260501163020 56 229 10.0 20.0 0.00 0.00 0.00 83 1018.5
20260501162510 56 208 7.0 17.0 0.00 0.00 0.00 83 1018.6
20260501162102 56 268 8.0 17.0 0.00 0.00 0.00 83 1018.7
20260501161552 56 201 7.0 17.0 0.00 0.00 0.00 83 1018.6
20260501161041 56 247 7.0 12.0 0.00 0.00 0.00 83 1018.6
20260501160527 56 246 6.0 18.0 0.00 0.00 0.00 83 1018.7
20260501160017 56 223 9.0 17.0 0.00 0.00 0.00 82 1018.6
20260501155505 56 259 9.0 21.0 0.00 0.00 0.00 83 1018.6
20260501155057 56 247 8.0 21.0 0.00 0.00 0.00 83 1018.5
20260501154550 56 177 9.0 18.0 0.00 0.00 0.00 83 1018.6
20260501154036 56 217 10.0 18.0 0.00 0.00 0.00 83 1018.7
20260501153516 56 219 8.0 15.0 0.00 0.00 0.00 83 1018.7
20260501153005 56 232 6.0 17.0 0.00 0.00 0.00 83 1018.7
20260501152554 56 192 9.0 18.0 0.00 0.00 0.00 83 1018.8
20260501152048 56 218 5.0 18.0 0.00 0.00 0.00 84 1018.8
20260501151542 56 205 8.0 18.0 0.00 0.00 0.00 84 1019.0
20260501151023 56 227 7.0 18.0 0.00 0.00 0.00 84 1019.1
20260501150513 55 190 11.0 17.0 0.00 0.00 0.00 83 1019.1
20260501150004 56 226 10.0 16.0 0.00 0.00 0.00 83 1019.2
20260501145557 56 234 7.0 18.0 0.00 0.00 0.00 84 1019.3
20260501145045 56 185 8.0 22.0 0.00 0.00 0.00 84 1019.3